Date String (YYYY-MM-DD hh:mm:ss) UTC,Instrument flags,Ambient pressure (hPa),Sample flow (lpm),Bypass flow (lpm),Sample temperature (°C),Ambient temperature (°C),ASC tube jacket temperature (°C),LED temperature (°C),Box temperature (°C),Sample RH (%),Span deviation,Mass concentration (μg/m³),Mass concentration (μg/m³),Mass concentration (μg/m³)
DateTimeUTC,F1_M11,P_M11,Q1_M11,Q2_M11,T1_M11,T2_M11,T3_M11,T4_M11,T5_M11,U1_M11,ZSPAN_M11,X0_M11,X2_M11,X1_M11
2022-04-14 10:00:00,,0821.7,4.99,0.00,21.9,21.5,00.0,30.9,23.7,07.8,0000.0,0005.61,0001.74,0001.19
2022-04-14 10:01:00,,0821.7,5.00,0.00,21.9,21.4,00.0,30.9,23.6,07.8,0000.0,0007.13,0001.80,0001.19
2022-04-14 10:02:00,,0821.7,5.00,0.00,21.9,21.3,00.0,30.9,23.6,07.8,0000.0,0007.21,0001.77,0001.18
2022-04-14 10:03:00,,0821.6,5.00,0.00,21.9,21.2,00.0,30.9,23.6,07.8,0000.0,0006.41,0001.72,0001.18
2022-04-14 10:04:00,,0821.7,5.00,0.00,21.9,21.2,00.0,30.9,23.6,07.8,0000.0,0006.31,0001.70,0001.17
2022-04-14 10:05:00,,0821.7,5.00,0.00,21.9,21.1,00.0,30.9,23.6,07.9,0000.0,0005.67,0001.73,0001.17
2022-04-14 10:06:00,,0821.7,5.00,0.00,21.9,21.1,00.0,30.9,23.6,07.9,0000.0,0005.01,0001.75,0001.18
2022-04-14 10:07:00,,0821.7,5.00,0.00,21.9,21.1,00.0,30.9,23.6,07.8,0000.0,0004.98,0001.74,0001.20
2022-04-14 10:08:00,,0821.7,5.00,0.00,21.9,21.1,00.0,30.9,23.6,07.8,0000.0,0005.71,0001.75,0001.21
2022-04-14 10:09:00,,0821.6,4.99,0.00,21.9,21.0,00.0,30.9,23.6,07.7,0000.0,0006.19,0001.76,0001.21
2022-04-14 10:10:00,,0821.5,4.99,0.00,21.9,21.0,00.0,30.9,23.6,07.6,0000.0,0006.36,0001.76,0001.20
2022-04-14 10:11:00,,0821.5,4.99,0.00,21.9,21.3,00.0,30.9,23.6,07.6,0000.0,0006.10,0001.77,0001.20
2022-04-14 10:12:00,,0821.5,5.01,0.00,22.0,22.1,00.0,30.9,23.8,07.4,0000.0,0004.70,0001.75,0001.19
2022-04-14 10:13:00,,0821.5,5.01,0.00,22.1,22.9,00.0,31.0,24.1,07.0,0000.0,0004.46,0001.79,0001.19
2022-04-14 10:14:00,,0821.4,4.98,0.00,22.2,23.1,00.0,31.0,24.2,06.7,0000.0,0004.37,0001.78,0001.18
2022-04-14 10:15:00,,0821.5,5.00,0.00,22.3,22.8,00.0,31.0,24.2,06.5,0000.0,0004.35,0001.77,0001.19
2022-04-14 10:16:00,,0821.7,4.99,0.00,22.3,22.5,00.0,31.0,24.1,06.5,0000.0,0004.16,0001.73,0001.18
2022-04-14 10:17:00,,0821.6,5.02,0.00,22.3,22.2,00.0,31.1,24.1,07.0,0000.0,0004.07,0001.73,0001.16
2022-04-14 10:18:00,,0821.7,5.00,0.00,22.3,22.0,00.0,31.1,24.0,07.1,0000.0,0004.14,0001.75,0001.14
2022-04-14 10:19:00,,0821.7,4.99,0.00,22.2,21.8,00.0,31.1,24.0,07.2,0000.0,0003.34,0001.73,0001.14
2022-04-14 10:20:00,,0821.7,5.00,0.00,22.2,21.7,00.0,31.1,23.9,07.2,0000.0,0002.86,0001.70,0001.13
2022-04-14 10:21:00,,0821.7,5.00,0.00,22.2,21.6,00.0,31.1,23.9,07.3,0000.0,0002.63,0001.68,0001.12
2022-04-14 10:22:00,,0821.7,5.01,0.00,22.2,21.5,00.0,31.1,23.9,07.3,0000.0,0002.74,0001.71,0001.12
2022-04-14 10:23:00,,0821.7,5.00,0.00,22.1,21.4,00.0,31.1,23.8,07.3,0000.0,0002.71,0001.70,0001.13
2022-04-14 10:24:00,,0821.7,4.99,0.00,22.1,21.3,00.0,31.1,23.8,07.3,0000.0,0002.78,0001.70,0001.13
2022-04-14 10:25:00,,0821.7,5.01,0.00,22.1,21.3,00.0,31.1,23.8,07.2,0000.0,0002.78,0001.68,0001.12
2022-04-14 10:26:00,,0821.6,5.01,0.00,22.1,21.3,00.0,31.1,23.8,07.2,0000.0,0002.83,0001.65,0001.11
2022-04-14 10:27:00,,0821.7,5.01,0.00,22.1,21.2,00.0,31.1,23.8,07.2,0000.0,0004.05,0001.70,0001.12
2022-04-14 10:28:00,,0821.7,4.99,0.00,22.1,21.2,00.0,31.1,23.8,07.2,0000.0,0004.22,0001.73,0001.12
2022-04-14 10:29:00,,0821.7,5.00,0.00,22.0,21.2,00.0,31.1,23.8,07.1,0000.0,0004.08,0001.67,0001.11
2022-04-14 10:30:00,,0821.7,5.00,0.00,22.0,21.3,00.0,31.1,23.8,07.0,0000.0,0004.05,0001.64,0001.10
2022-04-14 10:31:00,,0821.7,5.01,0.00,22.1,22.0,00.0,31.1,24.0,07.0,0000.0,0004.01,0001.62,0001.09
2022-04-14 10:32:00,,0821.7,5.00,0.00,22.3,22.9,00.0,31.2,24.3,07.0,0000.0,0003.98,0001.61,0001.09
2022-04-14 10:33:00,,0821.6,4.99,0.00,22.4,23.2,00.0,31.2,24.4,06.9,0000.0,0004.05,0001.63,0001.09
2022-04-14 10:34:00,,0821.5,5.00,0.00,22.5,23.0,00.0,31.2,24.4,06.7,0000.0,0004.86,0001.62,0001.08
2022-04-14 10:35:00,,0821.6,5.01,0.00,22.5,22.7,00.0,31.2,24.4,06.6,0000.0,0005.21,0001.55,0001.08
2022-04-14 10:36:00,,0821.7,4.99,0.00,22.5,22.4,00.0,31.2,24.3,06.5,0000.0,0005.21,0001.57,0001.09
2022-04-14 10:37:00,,0821.6,5.00,0.00,22.4,22.2,00.0,31.3,24.2,06.6,0000.0,0005.22,0001.60,0001.11
2022-04-14 10:38:00,,0821.6,5.00,0.00,22.4,22.1,00.0,31.3,24.2,06.6,0000.0,0004.63,0001.61,0001.11
2022-04-14 10:39:00,,0821.6,5.01,0.00,22.4,21.9,00.0,31.3,24.2,06.6,0000.0,0004.20,0001.59,0001.11
2022-04-14 10:40:00,,0821.5,4.99,0.00,22.4,21.8,00.0,31.3,24.1,06.6,0000.0,0004.30,0001.62,0001.13
2022-04-14 10:41:00,,0821.5,4.99,0.00,22.4,21.7,00.0,31.3,24.1,06.6,0000.0,0004.84,0001.66,0001.14
2022-04-14 10:42:00,,0821.6,4.99,0.00,22.4,21.6,00.0,31.3,24.1,06.6,0000.0,0005.43,0001.76,0001.15
2022-04-14 10:43:00,,0821.6,5.00,0.00,22.3,21.5,00.0,31.3,24.1,06.6,0000.0,0005.95,0001.83,0001.16
2022-04-14 10:44:00,,0821.5,5.00,0.00,22.3,21.5,00.0,31.3,24.1,06.5,0000.0,0005.87,0001.80,0001.17
2022-04-14 10:45:00,,0821.5,5.00,0.00,22.3,21.4,00.0,31.3,24.1,06.5,0000.0,0006.44,0001.82,0001.19
2022-04-14 10:46:00,,0821.5,5.00,0.00,22.3,21.4,00.0,31.3,24.0,06.6,0000.0,0005.87,0001.88,0001.20
2022-04-14 10:47:00,,0821.4,5.00,0.00,22.3,21.4,00.0,31.3,24.0,06.5,0000.0,0006.01,0001.94,0001.21
2022-04-14 10:48:00,,0821.4,5.01,0.00,22.3,21.4,00.0,31.3,24.0,06.6,0000.0,0006.03,0001.97,0001.21
2022-04-14 10:49:00,,0821.4,5.00,0.00,22.3,21.3,00.0,31.2,24.0,06.5,0000.0,0005.92,0002.00,0001.24
2022-04-14 10:50:00,,0821.6,5.00,0.00,22.2,21.3,00.0,31.2,24.0,06.5,0000.0,0006.10,0002.09,0001.27
2022-04-14 10:51:00,,0821.5,5.01,0.00,22.2,21.3,00.0,31.2,23.9,06.6,0000.0,0006.33,0002.16,0001.28
2022-04-14 10:52:00,,0821.4,5.00,0.00,22.2,21.2,00.0,31.2,23.9,06.6,0000.0,0006.56,0002.23,0001.30
2022-04-14 10:53:00,,0821.5,4.98,0.00,22.2,21.8,00.0,31.2,24.0,06.6,0000.0,0007.41,0002.20,0001.31
2022-04-14 10:54:00,,0821.5,5.02,0.00,22.4,22.6,00.0,31.3,24.2,06.5,0000.0,0007.20,0002.19,0001.33
2022-04-14 10:55:00,,0821.5,5.00,0.00,22.5,23.3,00.0,31.3,24.5,06.5,0000.0,0007.21,0002.23,0001.33
2022-04-14 10:56:00,,0821.4,4.98,0.00,22.6,23.1,00.0,31.3,24.5,06.4,0000.0,0006.16,0002.23,0001.33
2022-04-14 10:57:00,,0821.4,5.00,0.00,22.5,22.7,00.0,31.3,24.4,06.5,0000.0,0005.88,0002.19,0001.33
2022-04-14 10:58:00,,0821.5,5.00,0.00,22.5,22.4,00.0,31.3,24.3,06.5,0000.0,0005.82,0002.16,0001.33
2022-04-14 10:59:00,,0821.4,5.00,0.00,22.5,22.2,00.0,31.3,24.2,06.5,0000.0,0005.85,0002.13,0001.33
